Dewpoint
29 26 23 24 24 21 22 21 22 25 27 23 22 21 22 23 21 21 21 22 23 26 31 36 41 41 40 41 42 44 44 45 46 46 45 45 45 46 47 47 47 46 46 46
25 23 26 29 29 23 23 21 23 24 25 18 20 19 21 23 22 21 21 21 22 24 27 35 41 41 41 40 41 43 43 45 46 46 46 46 46 46 47 47 46 46 46 46
26 29 30 28 27 23 24 19 21 17 24 25 15 14 16 22 23 23 22 22 22 24 25 31 39 41 41 40 40 42 44 45 46 45 46 46 45 45 44 45 45 46 46 45
30 31 30 28 28 25 21 27 25 23 15 14 18 13 10 22 25 25 26 22 22 23 24 29 39 40 40 40 40 42 43 44 45 45 44 43 43 42 43 44 44 42 44 42
28 29 27 27 28 29 25 27 26 25 22 16 16 15 15 25 25 29 31 31 34 35 34 36 40 41 41 40 40 41 43 44 44 44 44 43 42 43 43 42 40 39 41 41
30 33 32 30 30 29 28 25 25 25 19 10 16 17 17 23 25 31 32 34 35 36 37 39 40 41 41 41 41 42 42 43 44 44 44 43 42 41 41 40 38 38 39 40
26 28 33 34 27 28 28 20 14 10 12 10 23 20 21 24 26 30 30 33 35 36 37 37 39 40 41 41 41 41 42 42 43 43 43 43 42 41 41 39 37 36 37 38
17 11 30 34 30 25 28 24 15 3 12 15 21 19 24 27 32 33 35 36 36 37 37 38 39 40 40 41 41 41 42 42 42 42 42 42 42 42 41 39 37 37 37 37
23 22 32 34 35 28 27 24 26 22 19 15 17 20 25 31 31 34 32 35 35 36 37 38 39 39 40 41 41 41 42 42 42 42 42 42 42 41 40 38 37 37 37 36
29 20 30 33 34 33 29 28 17 20 8 8 15 20 22 26 27 33 32 32 33 35 37 39 39 40 41 41 42 42 42 43 43 43 42 42 41 41 40 38 37 37 36 35
30 24 26 30 27 24 29 27 28 24 23 16 11 15 28 27 29 33 33 35 37 37 38 39 39 40 41 41 41 40 39 41 42 43 42 42 41 41 40 38 37 36 35 32
30 28 23 21 30 32 29 26 27 20 16 23 19 19 27 29 30 34 35 34 36 34 34 36 37 34 29 29 30 31 32 35 38 42 42 42 41 41 40 39 37 36 33 31
29 23 19 17 22 28 27 30 27 26 26 23 18 17 28 32 33 33 34 33 23 23 24 26 26 26 26 27 28 30 32 33 35 39 41 41 41 40 40 39 37 35 32 29
31 25 19 12 15 25 25 27 29 27 21 22 23 21 26 29 28 26 23 27 26 25 25 25 26 26 27 27 28 30 31 32 33 36 39 41 41 40 40 40 38 35 32 28
26 15 21 24 23 23 23 23 27 28 26 23 21 25 25 25 29 30 24 24 24 24 26 27 27 28 28 29 29 30 30 31 32 34 36 38 41 41 40 39 38 36 33 30
30 16 24 21 23 23 22 22 23 25 28 28 28 27 26 25 27 24 23 23 24 26 27 28 28 28 29 29 30 30 31 32 33 33 33 36 39 40 40 40 39 36 33 30
29 24 23 15 23 20 14 15 21 22 23 23 21 20 27 24 26 23 23 24 26 27 28 28 28 29 30 30 30 31 32 32 33 33 34 35 37 38 39 39 38 36 33 30
29 26 25 22 20 9 17 20 18 20 21 22 22 22 24 26 24 25 26 27 28 28 28 29 29 30 31 31 31 32 32 33 33 34 34 35 36 37 37 37 37 35 33 30
29 27 23 21 19 18 17 18 18 17 17 22 22 22 23 25 27 27 28 29 30 30 29 29 30 31 31 31 31 32 32 33 33 33 33 34 35 35 35 36 36 35 32 30
29 28 24 23 19 15 16 20 22 21 15 24 23 23 23 23 22 24 27 30 30 30 30 31 32 32 31 31 32 32 32 32 32 33 34 35 35 34 34 35 35 35 32 30
26 25 24 23 22 23 25 25 23 15 16 25 25 25 25 25 28 28 29 30 30 30 30 32 31 31 31 32 32 31 32 31 32 33 33 33 33 33 33 33 33 33 32 30
24 23 23 23 22 19 26 23 19 21 26 26 26 27 27 28 28 29 30 30 30 30 31 32 31 31 31 32 32 31 31 32 32 32 32 32 32 32 32 32 31 30 28 27
20 23 23 24 24 25 27 24 26 27 27 29 27 29 29 29 29 30 30 29 29 29 30 30 30 29 30 30 30 30 30 31 30 30 30 31 31 31 31 30 29 28 26 25
24 26 24 24 24 26 27 28 30 31 33 32 32 32 30 29 29 29 29 30 29 28 28 29 28 28 28 29 30 31 31 30 29 29 29 30 28 30 28 27 27 26 25 24
23 25 24 24 26 28 29 29 30 32 32 31 30 29 29 29 29 29 29 29 29 28 28 28 28 28 28 28 29 30 30 30 29 28 28 27 27 27 27 25 24 24 24 25
28 27 27 27 30 30 30 31 32 32 32 31 30 29 30 30 29 30 30 30 29 27 27 28 27 27 27 28 28 29 30 29 28 27 27 26 27 26 25 23 22 26 30 28
Lifted_Index
2 2 3 4 4 5 5 5 5 6 6 6 6 5 6 7 7 7 7 7 8 8 10 10 11 11 12 12 12 12 12 13 13 13 13 13 12 12 12 13 13 13 14 14
2 2 3 4 5 5 5 5 4 5 6 6 5 5 6 6 7 7 7 8 8 9 10 10 11 11 12 12 12 12 12 12 12 13 13 12 12 12 12 13 13 13 14 14
2 2 3 4 5 5 5 4 4 4 5 5 5 4 4 5 6 7 7 8 9 9 10 10 11 11 11 12 12 11 11 12 12 13 12 12 12 12 12 12 13 13 14 14
2 3 3 4 5 5 4 4 4 4 3 4 4 3 3 4 5 6 7 8 9 10 10 10 11 11 11 11 11 11 11 12 12 12 12 11 11 11 12 12 13 14 14 15
3 3 3 4 4 4 4 5 4 4 3 3 2 2 2 3 4 5 7 8 9 10 10 10 11 11 11 11 11 11 11 11 12 12 12 11 11 11 12 12 13 14 15 15
3 3 4 4 4 4 5 4 4 3 2 2 2 2 2 3 4 6 7 8 9 10 10 10 10 10 10 10 11 11 11 11 12 12 11 11 11 12 12 12 13 13 14 15
3 3 4 4 4 5 5 4 2 1 1 1 2 2 3 4 6 7 8 9 10 10 10 10 10 10 10 10 11 11 11 11 11 11 11 11 12 12 12 12 13 13 14 14
2 3 4 5 5 5 5 4 2 1 1 1 2 3 4 6 7 8 8 9 9 9 9 9 9 9 10 11 11 11 11 11 11 11 11 11 11 12 12 12 12 13 13 14
2 3 4 5 6 6 5 5 4 3 2 2 2 4 5 6 7 8 8 8 9 9 9 9 9 9 10 10 10 10 10 11 11 11 11 11 11 12 12 12 12 13 13 14
3 3 4 5 5 5 5 5 5 4 3 2 2 4 5 6 6 7 7 8 8 8 8 9 9 9 10 10 10 10 11 11 11 12 11 11 11 12 12 12 12 12 13 13
4 3 3 4 5 5 5 5 5 5 3 2 2 3 5 5 6 6 7 8 8 9 9 9 9 9 10 10 11 11 12 12 12 12 12 12 11 11 12 12 12 12 12 12
6 4 3 4 5 5 5 5 5 5 4 3 2 3 5 6 6 7 7 8 9 9 9 9 9 10 10 11 12 12 12 12 12 13 12 12 11 11 11 11 12 12 12 12
7 5 4 4 5 6 6 5 6 5 4 3 3 4 6 7 7 8 8 9 9 10 10 10 10 11 11 12 12 12 12 12 12 12 12 12 11 11 11 11 11 11 11 12
7 6 5 5 6 6 6 6 7 6 5 4 4 5 7 8 8 9 9 9 9 10 10 11 11 12 12 12 11 11 12 12 12 12 12 12 11 11 11 11 11 11 11 11
8 7 6 6 7 7 7 7 7 7 6 5 5 5 7 8 9 9 9 9 10 10 11 11 12 12 11 11 11 11 12 12 13 12 12 12 12 11 11 11 11 11 10 10
8 7 6 6 7 7 6 6 7 7 6 6 5 6 7 9 9 10 10 10 10 10 10 11 11 11 11 11 11 12 12 13 13 12 12 12 12 11 11 10 10 11 11 10
7 6 5 5 5 5 5 6 6 6 7 7 6 7 9 10 10 10 10 10 10 10 10 10 10 11 11 11 12 12 13 13 13 12 12 12 12 11 11 10 11 11 11 11
6 6 5 4 4 4 5 6 6 6 7 8 8 8 9 10 11 11 10 11 10 10 10 10 10 10 11 12 12 13 13 13 12 12 12 12 12 11 11 11 11 11 11 11
7 6 5 4 4 4 5 6 7 7 7 8 9 9 9 10 10 10 10 10 10 9 9 10 10 11 11 12 12 12 12 12 12 12 12 12 12 11 11 11 11 11 11 11
8 7 6 5 4 4 6 7 8 7 7 8 8 9 9 9 9 9 9 9 9 9 9 9 10 11 11 12 12 11 11 11 11 12 12 12 12 12 11 11 11 12 11 11
7 7 6 6 5 5 7 8 8 7 7 8 9 8 8 8 8 8 8 8 8 9 9 9 10 11 11 11 11 11 11 11 12 12 12 12 12 12 11 11 11 12 12 12
6 6 6 6 5 6 7 8 8 8 8 8 8 8 8 8 8 8 8 8 9 9 9 10 10 11 11 11 11 12 12 12 12 12 12 12 12 11 11 11 11 11 11 11
6 6 6 6 6 6 7 8 8 8 8 8 7 7 7 7 7 8 8 8 9 9 9 10 11 10 11 12 12 12 12 12 12 12 12 11 11 11 11 10 10 10 10 10
6 6 6 6 5 6 6 7 7 8 8 7 7 7 7 7 7 7 8 8 8 9 9 10 10 10 11 12 13 13 13 13 12 12 11 11 11 10 10 10 10 10 10 10
5 5 5 5 5 5 6 6 7 7 7 7 7 7 7 7 7 7 7 7 8 8 9 10 10 10 11 12 13 14 14 13 13 12 11 11 10 10 9 9 9 9 9 9
5 5 4 4 5 5 6 6 6 6 7 7 7 7 7 7 7 7 7 7 7 8 9 10 10 11 12 12 13 13 14 13 13 12 12 11 10 9 9 8 8 9 9 9